Tracking 19280 objects as of 15-Nov-2018
HD Live streaming from Space Station
objects crossing your sky now

TIMATION 1

Track TIMATION 1 now!
10-day predictions
TIMATION 1 is classified as:


NORAD ID: 2847
Int'l Code: 1967-053E
Perigee: 892.6 km
Apogee: 897.4 km
Inclination: 70.0 °
Period: 102.7 minutes
Semi major axis: 7266 km
RCS: 0.1805 m2 (medium)
Launch date: May 31, 1967
Source: United States (US)
Launch site: AIR FORCE WESTERN TEST RANGE (AFWTR)
aabbcc
Your satellite tracking list
Your tracking list is empty




NASA's NSSDC Master Catalog

Two Line Element Set (TLE):
1  2847U 67053E   18318.77428617 -.00000006  00000-0  31841-4 0  9993
2  2847  69.9657  82.6316 0003296  88.1476 272.0010 14.01707444625710
Source of the keplerian elements: AFSPC